Vertical_Velocity
-1 -4 -3 -3 -3 -3 -4 -4 -2 -3 -2 -1 -2 -1 -1 -3 -3 10 -19 -3 2 4
-3 -4 -5 -4 -3 -4 -2 -3 -3 -1 -3 -2 -2 -1 -0 -2 -2 -6 7 3 -4 3
-5 -3 -3 -3 -4 -3 -2 -2 -2 -1 -2 -1 -1 0 0 -1 1 -1 -3 1 -5 1
-3 -2 -2 -2 -2 -1 -2 -3 -2 -1 -3 -1 -1 1 -1 -0 -2 -5 2 0 4 -9
-3 -3 -4 -2 -2 -1 -3 -1 -2 -2 -2 -2 -1 1 -0 -2 2 -1 -8 2 -6 -11
-2 -3 -4 -3 -3 -1 -4 -0 -2 -0 -1 -3 -0 -1 2 -1 -1 1 2 -5 -1 -7
-2 -3 -4 -3 -2 -2 -1 -1 -1 1 -1 1 -2 -0 3 -4 -3 -1 -0 3 1 0
-2 -1 -2 -2 -1 -2 0 1 1 -4 -2 2 -0 1 -1 3 1 3 -1 -2 -0 -5
-2 -1 -1 -2 -2 -3 -2 0 -2 0 -1 -5 0 -1 2 10 3 4 -0 -2 -1 -6
-2 -2 -2 -3 -3 -2 -4 -4 -2 -2 -1 -4 1 -2 1 3 4 1 -1 1 -2 -3
-3 -3 -2 -3 -2 -2 -2 -4 -7 -5 -0 -5 1 -3 -2 1 0 -1 -0 2 5 0
-2 -4 -3 -2 -2 -1 -5 -3 -5 0 -5 -1 -5 -1 -2 2 -1 -2 -3 -1 0 12
-0 -2 -3 -2 -1 -3 -0 -3 -4 -6 3 -0 -4 0 -1 3 4 -1 -5 -3 -2 3
0 -2 -1 -2 -0 -2 -3 -2 -2 -4 1 -2 3 -4 -1 -0 5 7 -1 -4 -6 -2
Height
1517 1513 1510 1507 1504 1500 1495 1491 1487 1483 1479 1475 1471 1466 1462 1457 1454 1450 1452 1449 1445 1447
1514 1511 1508 1505 1502 1497 1493 1487 1483 1479 1473 1469 1464 1460 1455 1450 1447 1445 1438 1441 1438 1439
1512 1509 1506 1502 1497 1493 1488 1484 1478 1473 1468 1462 1457 1453 1449 1443 1440 1438 1437 1429 1428 1428
1510 1506 1503 1498 1494 1488 1483 1479 1474 1468 1462 1456 1451 1446 1441 1437 1432 1428 1424 1425 1421 1421
1507 1503 1499 1495 1490 1484 1478 1475 1469 1463 1457 1451 1445 1440 1435 1430 1426 1422 1417 1414 1415 1412
1504 1500 1496 1492 1487 1481 1475 1470 1465 1459 1452 1445 1439 1434 1429 1424 1419 1415 1413 1409 1406 1402
1500 1496 1492 1488 1483 1478 1471 1464 1459 1454 1448 1441 1435 1429 1424 1418 1413 1408 1401 1398 1395 1393
1495 1492 1488 1484 1479 1473 1468 1461 1454 1448 1444 1437 1431 1425 1419 1416 1410 1400 1391 1384 1380 1379
1491 1487 1484 1479 1473 1468 1463 1456 1450 1444 1438 1432 1426 1421 1415 1410 1403 1393 1385 1377 1373 1372
1486 1483 1478 1474 1469 1464 1457 1451 1445 1439 1433 1427 1421 1415 1409 1403 1396 1387 1379 1373 1367 1363
1481 1477 1473 1469 1464 1459 1453 1446 1440 1434 1428 1421 1415 1410 1404 1397 1389 1381 1374 1367 1361 1354
1476 1472 1468 1463 1459 1454 1447 1441 1436 1430 1423 1416 1409 1404 1399 1392 1384 1375 1366 1359 1352 1344
1470 1466 1462 1458 1453 1448 1442 1436 1431 1424 1419 1412 1404 1399 1393 1388 1381 1371 1361 1352 1345 1340
1463 1459 1455 1451 1447 1442 1437 1431 1425 1419 1413 1407 1400 1393 1388 1382 1376 1367 1358 1348 1338 1331